Location: Andiroba
(19.8650°S, 43.9258°W)
Time: 00:28:47
(UTC+00:00)

ARGOS - Pass Details

Date: 15 June 2024
Orbit: 820 x 833 km, 98.4° (Epoch: 24 July)

Event Time Altitude Azimuth Distance (km) Brightness Sun altitude
Rises 08:08:13 0° 345° (NNW) 3,360 6.4 -18.3°
Reaches altitude 10° 08:10:58 10° 332° (NNW) 2,434 5.5 -17.7°
Maximum altitude 08:15:17 25° 278° (W) 1,646 4.2 -16.8°
Enters shadow 08:15:43 24° 271° (W) 1,656 4.2 -16.7°
